COSMOS 1763

Satellite information

Favourite Embed

Satellite Type and Status

PAYLOADIN ORBIT

Key statistics

Satellite COSMOS 1763 at a glance.

Uptime

14296

Days in orbit

Revolutions

≈ 14.4

Per day

Orbit

LEO

Low Earth Orbit

Inclination

74.0

Latest

Satellite identification and parameters

Extended collection of information and parameters for COSMOS 1763.

Object identification

Identified? True

Debris? False

Object name: COSMOS 1763

International designator: 1986-052A

Object number (NORAD): 16860

Object ID (CCSDS): 16860

Country: COMMONWEALTH OF INDEPENDENT STATES (CIS)

Current information (Y/N): Y

RCS size: LARGE

Orbital parameters

Period: 100.057 minutes

Inclination: 74.0352 deg

SMA: 7139.357 km

Apoapsis: 782.303 km

Periapsis: 740.141 km

RAAN: 14.5885 deg

Eccentricy: 0.00295275

Argument of periapsis: 91.8858 deg

Mean anomaly: 268.5678 deg

Mean motion: 14.39176724 rev/day

Mean motion (dot): 0.00000367 rev/day2

B* drag term: 0.00012627347 1/REarth

Two-line elements (TLE)

Creation date: Sept. 4, 2025, 10:13 a.m.

Reference frame: TEME

Reference center: EARTH

Epoch: Sept. 4, 2025, 1:36 a.m. UTC

TLE line 0: 0 COSMOS 1763

TLE line 1: 1 16860U 86052A 25247.06732657 .00000367 00000-0 12627-3 0 9995

TLE line 2: 2 16860 74.0352 14.5885 0029528 91.8858 268.5678 14.39176724 52643

Live tracking on map

Real-time ground track for satellite COSMOS 1763.

In-orbit conjunctions

A list of the most updated potential collisions computed for object COSMOS 1763.

Target Orbit TCA Probability of collision Miss distance Type
METEOR 2-8 DEB LEO 2025-07-10 10:59:22 0.0006224749 789.0 (m) DEBRIS
DMSP 5D-2 F13 DEB SSO 2025-04-01 03:46:17 0.0001385204 886.0 (m) DEBRIS
FENGYUN 1C DEB SSO 2025-03-02 19:09:07 0.0002302297 842.0 (m) DEBRIS
DMSP 5D-2 F13 DEB SSO 2025-02-24 01:10:42 0.0001146548 520.0 (m) DEBRIS
CZ-6A DEB SSO 2025-02-21 18:06:13 0.0001044561 843.0 (m) DEBRIS

Associated space launch

Military communications satellite

COSMOS 1763 was lifted into orbit during the mission ‘Kosmos-3M | Strela-2M 39’, on board a Kosmos-3M space rocket.

The launch took place on July 16, 1986, 4:21 a.m. from 133/3 (133L).

For more information about the launch, click the button.

Launch to space Kosmos-3M | Strela-2M 39
Kosmos-3M | Strela-2M 39

Agency: N/A

Status: Launch Successful

Launch date: July 16, 1986, 4:21 a.m. UTC

Rocket: Kosmos-3M

Launch pad: 133/3 (133L)

Location: Plesetsk Cosmodrome, Russian Federation

...

Latest news about this satellite

There are no fresh news available about this satellite. Check back as we update our databases every day.


Newsletter sign-up

Weekly statistics, charts and insights to help you stay on top of the space industry.